Location: Long Geng
(2.6167°N, 114.1333°E)
Time: 14:54:19
(UTC+00:00)

CZ-3 Stage 3 - Pass Details

Date: 14 May 2021
Orbit: 394 x 34789 km, 30.4° (Epoch: 15 June)

Event Time Altitude Azimuth Distance (km) Brightness Sun altitude
Exits shadow 19:39:53 25° 45° (NE) 1,457 4.4 -36.4°
Drops below altitude 10° 19:41:03 10° 49° (NE) 1,941 5.3 -36.1°
Sets 19:42:22 0° 52° (NE) 2,569 6.2 -35.8°
